• Em Portugal
  • Lista de países
  • Para 7 dias
  • Temperatura da água
  • Mapas de satélite
  • Mapa do tempo
  • Widgets de tempo
  • user-avatar
    Iniciar Sessão

    Previsão horária em Calguri

    Hoje, 22 Outubro, Segunda-feira

    Tempo Temperatura Precipitação Vento Pressão Humidade
    00:00 +17°C° 0 mm 7 m/s 729 mmHg 58%
    01:00 +16°C° 0 mm 7 m/s 729 mmHg 62%
    02:00 +16°C° 0 mm 7 m/s 729 mmHg 64%
    03:00 +15°C° 0 mm 6 m/s 729 mmHg 67%
    04:00 +14°C° 0 mm 6 m/s 729 mmHg 69%
    05:00 +13°C° 0 mm 6 m/s 730 mmHg 71%
    06:00 +14°C° 0 mm 6 m/s 730 mmHg 64%
    07:00 +14°C° 0 mm 6 m/s 731 mmHg 58%
    08:00 +15°C° 0 mm 4 m/s 731 mmHg 48%
    09:00 +17°C° 0 mm 4 m/s 731 mmHg 42%
    10:00 +19°C° 0 mm 4 m/s 731 mmHg 36%
    11:00 +20°C° 0 mm 4 m/s 731 mmHg 29%
    12:00 +22°C° 0 mm 4 m/s 731 mmHg 27%
    13:00 +23°C° 0 mm 4 m/s 730 mmHg 24%
    14:00 +25°C° 0 mm 4 m/s 730 mmHg 21%
    15:00 +25°C° 0 mm 4 m/s 730 mmHg 21%
    16:00 +25°C° 0 mm 4 m/s 730 mmHg 21%
    17:00 +25°C° 0 mm 4 m/s 730 mmHg 21%
    18:00 +23°C° 0 mm 5 m/s 730 mmHg 24%
    19:00 +22°C° 0 mm 5 m/s 731 mmHg 28%
    20:00 +21°C° 0 mm 6 m/s 731 mmHg 32%
    21:00 +19°C° 0 mm 6 m/s 731 mmHg 37%
    22:00 +17°C° 0 mm 7 m/s 731 mmHg 42%
    23:00 +16°C° 0 mm 7 m/s 731 mmHg 47%

    Amanhã, 23 Outubro, Terça-feira

    Tempo Temperatura Precipitação Vento Pressão Humidade
    00:00 +15°C° 0 mm 7 m/s 731 mmHg 50%
    01:00 +14°C° 0 mm 7 m/s 731 mmHg 54%
    02:00 +14°C° 0 mm 6 m/s 731 mmHg 57%
    03:00 +13°C° 0 mm 6 m/s 731 mmHg 60%
    04:00 +13°C° 0 mm 6 m/s 731 mmHg 62%
    05:00 +12°C° 0 mm 5 m/s 731 mmHg 65%
    06:00 +13°C° 0 mm 6 m/s 732 mmHg 61%
    07:00 +14°C° 0 mm 6 m/s 732 mmHg 58%
    08:00 +16°C° 0 mm 7 m/s 732 mmHg 54%
    09:00 +19°C° 0 mm 6 m/s 732 mmHg 48%
    10:00 +21°C° 0 mm 6 m/s 732 mmHg 42%
    11:00 +22°C° 0 mm 6 m/s 731 mmHg 36%
    12:00 +25°C° 0 mm 5 m/s 731 mmHg 32%
    13:00 +26°C° 0 mm 5 m/s 730 mmHg 28%
    14:00 +27°C° 0 mm 4 m/s 729 mmHg 25%
    15:00 +27°C° 0 mm 4 m/s 729 mmHg 24%
    16:00 +28°C° 0 mm 3 m/s 729 mmHg 23%
    17:00 +28°C° 0 mm 3 m/s 728 mmHg 22%
    18:00 +27°C° 0 mm 2 m/s 728 mmHg 24%
    19:00 +26°C° 0 mm 2 m/s 728 mmHg 25%
    20:00 +25°C° 0 mm 2 m/s 728 mmHg 27%
    21:00 +24°C° 0 mm 2 m/s 728 mmHg 28%
    22:00 +24°C° 0 mm 3 m/s 728 mmHg 29%
    23:00 +22°C° 0 mm 4 m/s 727 mmHg 30%

    Depois de amanhã, 24 Outubro, Quarta-feira

    Tempo Temperatura Precipitação Vento Pressão Humidade
    00:00 +22°C° 0 mm 4 m/s 727 mmHg 32%
    01:00 +21°C° 0 mm 4 m/s 727 mmHg 34%
    02:00 +21°C° 0 mm 5 m/s 726 mmHg 36%
    03:00 +20°C° 0 mm 4 m/s 726 mmHg 39%
    04:00 +20°C° 0 mm 4 m/s 726 mmHg 41%
    05:00 +19°C° 0 mm 3 m/s 726 mmHg 43%
    06:00 +21°C° 0 mm 4 m/s 726 mmHg 39%
    07:00 +22°C° 0 mm 5 m/s 727 mmHg 35%
    08:00 +24°C° 0 mm 6 m/s 727 mmHg 31%
    09:00 +27°C° 0 mm 5 m/s 726 mmHg 29%
    10:00 +29°C° 0 mm 4 m/s 726 mmHg 26%
    11:00 +30°C° 0 mm 4 m/s 726 mmHg 23%
    12:00 +31°C° 0 mm 3 m/s 725 mmHg 21%
    13:00 +33°C° 0 mm 3 m/s 724 mmHg 20%
    14:00 +34°C° 0 mm 3 m/s 724 mmHg 18%
    15:00 +33°C° 0 mm 4 m/s 724 mmHg 19%
    16:00 +33°C° 0 mm 5 m/s 724 mmHg 19%
    17:00 +32°C° 0 mm 6 m/s 724 mmHg 20%
    18:00 +29°C° 0.2 mm 8 m/s 724 mmHg 27%
    19:00 +26°C° 0.2 mm 10 m/s 725 mmHg 34%
    20:00 +23°C° 0.2 mm 12 m/s 725 mmHg 40%
    21:00 +22°C° 0.1 mm 11 m/s 726 mmHg 44%
    22:00 +19°C° 0.1 mm 11 m/s 726 mmHg 48%
    23:00 +18°C° 0.1 mm 11 m/s 727 mmHg 52%

    25 Outubro, Quinta-feira

    Tempo Temperatura Precipitação Vento Pressão Humidade
    00:00 +18°C° 0 mm 10 m/s 727 mmHg 55%
    01:00 +17°C° 0 mm 10 m/s 727 mmHg 58%
    02:00 +17°C° 0 mm 9 m/s 727 mmHg 60%
    03:00 +17°C° 0 mm 9 m/s 726 mmHg 64%
    04:00 +16°C° 0 mm 9 m/s 726 mmHg 67%
    05:00 +16°C° 0 mm 9 m/s 726 mmHg 71%
    06:00 +17°C° 0 mm 9 m/s 727 mmHg 66%
    07:00 +18°C° 0 mm 9 m/s 727 mmHg 61%
    08:00 +19°C° 0 mm 10 m/s 728 mmHg 56%
    09:00 +22°C° 0 mm 9 m/s 728 mmHg 50%
    10:00 +24°C° 0 mm 9 m/s 728 mmHg 44%
    11:00 +27°C° 0 mm 9 m/s 728 mmHg 39%
    12:00 +28°C° 0 mm 9 m/s 728 mmHg 36%
    13:00 +29°C° 0 mm 9 m/s 727 mmHg 33%
    14:00 +31°C° 0 mm 9 m/s 727 mmHg 31%
    15:00 +31°C° 0 mm 10 m/s 727 mmHg 31%
    16:00 +29°C° 0 mm 10 m/s 727 mmHg 31%
    17:00 +29°C° 0 mm 10 m/s 727 mmHg 31%
    18:00 +27°C° 0 mm 10 m/s 728 mmHg 35%
    19:00 +24°C° 0 mm 10 m/s 729 mmHg 38%
    20:00 +23°C° 0 mm 10 m/s 729 mmHg 42%
    21:00 +22°C° 0 mm 10 m/s 729 mmHg 43%
    22:00 +21°C° 0 mm 9 m/s 729 mmHg 44%
    23:00 +19°C° 0 mm 9 m/s 729 mmHg 45%

    26 Outubro, Sexta-feira

    Tempo Temperatura Precipitação Vento Pressão Humidade
    00:00 +18°C° 0 mm 9 m/s 729 mmHg 49%
    01:00 +17°C° 0 mm 9 m/s 729 mmHg 53%
    02:00 +16°C° 0 mm 8 m/s 728 mmHg 56%
    03:00 +16°C° 0 mm 8 m/s 728 mmHg 60%
    04:00 +15°C° 0 mm 7 m/s 728 mmHg 64%
    05:00 +15°C° 0 mm 7 m/s 728 mmHg 68%
    06:00 +16°C° 0 mm 7 m/s 729 mmHg 64%
    07:00 +17°C° 0 mm 7 m/s 729 mmHg 61%
    08:00 +18°C° 0 mm 7 m/s 730 mmHg 57%
    09:00 +21°C° 0 mm 6 m/s 730 mmHg 51%
    10:00 +25°C° 0 mm 5 m/s 729 mmHg 45%
    11:00 +27°C° 0 mm 5 m/s 729 mmHg 39%
    12:00 +28°C° 0 mm 5 m/s 729 mmHg 35%
    13:00 +30°C° 0 mm 5 m/s 728 mmHg 32%
    14:00 +32°C° 0 mm 5 m/s 727 mmHg 29%
    15:00 +32°C° 0 mm 5 m/s 728 mmHg 28%
    16:00 +33°C° 0 mm 6 m/s 728 mmHg 27%
    17:00 +33°C° 0 mm 6 m/s 728 mmHg 27%
    18:00 +30°C° 0 mm 7 m/s 729 mmHg 31%
    19:00 +28°C° 0 mm 8 m/s 730 mmHg 35%
    20:00 +27°C° 0 mm 9 m/s 730 mmHg 39%
    21:00 +24°C° 0 mm 9 m/s 730 mmHg 43%
    22:00 +22°C° 0 mm 9 m/s 731 mmHg 46%
    23:00 +21°C° 0 mm 9 m/s 731 mmHg 50%

    27 Outubro, Sábado

    Tempo Temperatura Precipitação Vento Pressão Humidade
    00:00 +20°C° 0 mm 8 m/s 731 mmHg 52%
    01:00 +18°C° 0 mm 7 m/s 731 mmHg 54%
    02:00 +17°C° 0 mm 7 m/s 730 mmHg 56%
    03:00 +16°C° 0 mm 7 m/s 731 mmHg 59%
    04:00 +16°C° 0 mm 6 m/s 731 mmHg 61%
    05:00 +15°C° 0 mm 6 m/s 732 mmHg 64%
    06:00 +16°C° 0 mm 6 m/s 732 mmHg 60%
    07:00 +17°C° 0 mm 7 m/s 732 mmHg 56%
    08:00 +18°C° 0 mm 7 m/s 733 mmHg 51%
    09:00 +21°C° 0 mm 6 m/s 733 mmHg 45%
    10:00 +24°C° 0 mm 6 m/s 732 mmHg 38%
    11:00 +27°C° 0 mm 6 m/s 732 mmHg 31%
    12:00 +28°C° 0 mm 6 m/s 731 mmHg 29%
    13:00 +29°C° 0 mm 5 m/s 731 mmHg 27%
    14:00 +30°C° 0 mm 5 m/s 730 mmHg 24%
    15:00 +30°C° 0 mm 5 m/s 731 mmHg 24%
    16:00 +30°C° 0 mm 5 m/s 731 mmHg 24%
    17:00 +30°C° 0 mm 5 m/s 731 mmHg 24%
    18:00 +29°C° 0 mm 5 m/s 731 mmHg 26%
    19:00 +27°C° 0 mm 5 m/s 732 mmHg 29%
    20:00 +26°C° 0 mm 6 m/s 733 mmHg 31%
    21:00 +23°C° 0 mm 6 m/s 733 mmHg 36%
    22:00 +22°C° 0 mm 7 m/s 733 mmHg 41%
    23:00 +20°C° 0 mm 8 m/s 733 mmHg 46%

    28 Outubro, Domingo

    Tempo Temperatura Precipitação Vento Pressão Humidade
    00:00 +18°C° 0 mm 7 m/s 733 mmHg 48%
    01:00 +17°C° 0 mm 7 m/s 732 mmHg 50%
    02:00 +16°C° 0 mm 6 m/s 732 mmHg 53%
    03:00 +15°C° 0 mm 5 m/s 732 mmHg 54%
    04:00 +15°C° 0 mm 5 m/s 733 mmHg 56%
    05:00 +14°C° 0 mm 5 m/s 733 mmHg 58%
    06:00 +16°C° 0 mm 5 m/s 733 mmHg 51%
    07:00 +17°C° 0 mm 5 m/s 733 mmHg 45%
    08:00 +20°C° 0 mm 5 m/s 733 mmHg 39%
    09:00 +22°C° 0 mm 5 m/s 733 mmHg 34%
    10:00 +25°C° 0 mm 5 m/s 733 mmHg 28%
    11:00 +27°C° 0 mm 5 m/s 732 mmHg 23%
    12:00 +28°C° 0 mm 4 m/s 732 mmHg 21%
    13:00 +29°C° 0 mm 3 m/s 731 mmHg 19%
    14:00 +30°C° 0 mm 3 m/s 731 mmHg 17%
    15:00 +30°C° 0 mm 3 m/s 730 mmHg 16%
    16:00 +30°C° 0 mm 3 m/s 730 mmHg 16%
    17:00 +30°C° 0 mm 2 m/s 730 mmHg 15%
    18:00 +29°C° 0 mm 3 m/s 731 mmHg 17%
    19:00 +28°C° 0 mm 3 m/s 731 mmHg 18%
    20:00 +27°C° 0 mm 3 m/s 731 mmHg 19%
    21:00 +26°C° 0 mm 4 m/s 731 mmHg 19%
    22:00 +25°C° 0 mm 4 m/s 731 mmHg 20%
    23:00 +25°C° 0 mm 5 m/s 731 mmHg 21%
    Mostrar mais